contact:dominique.lefevre@mio.osupytheas.fr, maurice.libes@osupytheas.fr, didier.mallarino@osupytheas.fr
Project:EMSO http://www.emso-fr.org/EMSO-France
Depth: 2436.0 m
Title:EMSO Ligure Ouest : Data MII capteur AQUADOPP
Date,Latitude,Longitude,X_East,Y_North,Z_Up,Amplitude_X,Amplitude_Y,Amplitude_Z,Batterie,SoundSpeed,Heading,Pitch,Roll,Pressure,TIS,Speed,Direction
, degrees North, degrees East, m.s-1, m.s-1,m.s-1, 1, 1, 1, Volt, m.s-1, degree, degree, degree, dbar, degree_C, m.s-1, degree
2023-09-12T00:04:03,42.805,6.029,0.002,0.01,-0.009,101.0,102.0,102.0,13.4,1505.2,343.7,-0.8,1.8,2471.506,13.28,0.01,11.3
2023-09-12T00:07:03,42.805,6.029,0.0,-0.017,-0.045,102.0,102.0,101.0,13.4,1505.2,344.9,-0.8,1.8,2471.5,13.29,0.017,180.0
2023-09-12T00:10:03,42.805,6.029,-0.021,0.003,-0.046,104.0,101.0,100.0,13.3,1505.2,337.2,-0.8,1.8,2471.477,13.29,0.021,278.1
2023-09-12T00:13:03,42.805,6.029,-0.032,0.032,-0.007,103.0,102.0,101.0,13.3,1505.2,335.5,-0.8,1.8,2471.483,13.29,0.045,315.0
2023-09-12T00:16:03,42.805,6.029,-0.01,0.012,0.0,103.0,103.0,101.0,13.4,1505.2,340.2,-0.8,1.8,2471.431,13.29,0.015,320.2
2023-09-12T00:19:03,42.805,6.029,-0.006,0.011,-0.01,102.0,102.0,101.0,13.4,1505.2,335.9,-0.8,1.8,2471.428,13.29,0.012,331.4
2023-09-12T00:22:03,42.805,6.029,0.007,0.005,0.0,103.0,101.0,103.0,13.3,1505.2,346.4,-0.8,1.8,2471.435,13.29,0.008,54.5
2023-09-12T00:25:03,42.805,6.029,-0.008,0.001,-0.048,102.0,102.0,101.0,13.3,1505.2,334.3,-0.8,1.8,2471.462,13.29,0.008,277.1
2023-09-12T00:28:03,42.805,6.029,-0.026,0.001,-0.031,102.0,102.0,101.0,13.4,1505.2,331.8,-0.8,1.9,2471.489,13.29,0.026,272.2
2023-09-12T00:31:03,42.805,6.029,-0.016,0.007,-0.025,103.0,102.0,101.0,13.3,1505.2,327.4,-0.8,1.8,2471.445,13.29,0.017,293.6
2023-09-12T00:34:03,42.805,6.029,-0.015,-0.011,-0.014,102.0,102.0,101.0,13.3,1505.2,353.9,-0.8,1.8,2471.447,13.29,0.018,233.7
2023-09-12T00:37:03,42.805,6.029,-0.015,0.018,0.0,102.0,101.0,102.0,13.4,1505.2,345.1,-0.8,1.8,2471.434,13.29,0.023,320.2
2023-09-12T00:40:03,42.805,6.029,-0.022,0.006,-0.063,102.0,102.0,102.0,13.3,1505.2,339.1,-0.8,1.8,2471.446,13.29,0.022,285.3
2023-09-12T00:43:03,42.805,6.029,-0.027,0.016,-0.03,101.0,102.0,102.0,13.3,1505.2,343.4,-0.8,1.8,2471.459,13.29,0.031,300.7
2023-09-12T00:46:03,42.805,6.029,-0.022,0.003,-0.007,103.0,101.0,101.0,13.4,1505.2,345.0,-0.8,1.8,2471.384,13.29,0.022,277.8
2023-09-12T00:49:03,42.805,6.029,-0.028,-0.015,-0.045,101.0,102.0,101.0,13.4,1505.2,331.6,-0.7,1.8,2471.426,13.29,0.031,241.8
2023-09-12T00:52:03,42.805,6.029,-0.007,-0.001,0.0,103.0,103.0,100.0,13.3,1505.2,343.7,-0.8,1.8,2471.438,13.29,0.007,261.9
2023-09-12T00:55:03,42.805,6.029,-0.028,0.013,-0.018,102.0,100.0,103.0,13.4,1505.2,336.3,-0.7,1.8,2471.433,13.29,0.03,294.9
2023-09-12T00:58:03,42.805,6.029,-0.011,-0.018,-0.037,103.0,102.0,100.0,13.4,1505.2,343.9,-0.8,1.8,2471.421,13.29,0.021,211.4
2023-09-12T01:04:03,42.805,6.029,-0.019,-0.003,-0.051,103.0,102.0,101.0,13.4,1505.2,353.5,-0.8,1.8,2471.492,13.28,0.019,261.0
2023-09-12T01:07:03,42.805,6.029,-0.02,-0.018,-0.059,102.0,101.0,101.0,13.4,1505.2,325.0,-0.8,1.8,2471.425,13.29,0.026,228.0
2023-09-12T01:10:03,42.805,6.029,-0.012,-0.009,-0.05,102.0,102.0,101.0,13.4,1505.2,331.2,-0.7,1.8,2471.486,13.29,0.015,233.1
2023-09-12T01:13:03,42.805,6.029,-0.015,0.011,-0.027,102.0,102.0,101.0,13.4,1505.2,352.1,-0.8,1.8,2471.485,13.29,0.018,306.3
2023-09-12T01:16:03,42.805,6.029,0.0,-0.005,-0.027,102.0,101.0,101.0,13.3,1505.2,325.4,-0.8,1.8,2471.451,13.29,0.005,180.0
2023-09-12T01:19:03,42.805,6.029,-0.014,0.004,-0.06,102.0,101.0,101.0,13.4,1505.2,346.2,-0.8,1.8,2471.443,13.29,0.014,285.9
2023-09-12T01:22:03,42.805,6.029,-0.006,0.009,-0.042,102.0,102.0,101.0,13.4,1505.2,354.7,-0.8,1.8,2471.455,13.29,0.01,326.3
2023-09-12T01:25:03,42.805,6.029,-0.002,-0.037,-0.059,102.0,100.0,101.0,13.4,1505.2,330.6,-0.8,1.8,2471.451,13.29,0.037,183.1
2023-09-12T01:28:03,42.805,6.029,-0.005,0.003,-0.012,102.0,103.0,101.0,13.4,1505.2,332.2,-0.8,1.8,2471.451,13.29,0.005,301.0
2023-09-12T01:31:03,42.805,6.029,-0.03,-0.011,-0.038,101.0,103.0,101.0,13.4,1505.2,325.2,-0.8,1.8,2471.444,13.29,0.031,249.9
2023-09-12T01:34:03,42.805,6.029,-0.021,0.001,-0.016,102.0,101.0,101.0,13.4,1505.2,341.9,-0.7,1.8,2471.442,13.29,0.021,272.7
2023-09-12T01:37:03,42.805,6.029,-0.003,0.016,-0.006,102.0,101.0,102.0,13.3,1505.2,344.0,-0.7,1.8,2471.463,13.29,0.016,349.4
2023-09-12T01:40:03,42.805,6.029,-0.006,-0.026,-0.039,104.0,101.0,101.0,13.4,1505.2,346.7,-0.8,1.8,2471.458,13.29,0.026,193.0
2023-09-12T01:43:03,42.805,6.029,-0.026,0.0,-0.034,101.0,102.0,101.0,13.4,1505.2,338.3,-0.7,1.8,2471.412,13.29,0.026,270.0
2023-09-12T01:46:03,42.805,6.029,-0.023,-0.004,-0.051,102.0,100.0,101.0,13.3,1505.2,354.5,-0.8,1.8,2471.426,13.29,0.023,260.1
2023-09-12T01:49:03,42.805,6.029,-0.034,-0.011,-0.054,102.0,103.0,101.0,13.4,1505.2,340.9,-0.8,1.8,2471.442,13.29,0.035,252.1
2023-09-12T01:52:03,42.805,6.029,-0.009,0.0,-0.026,100.0,102.0,102.0,13.4,1505.2,329.3,-0.8,1.8,2471.424,13.29,0.009,270.0
2023-09-12T01:55:03,42.805,6.029,-0.017,-0.024,-0.07,101.0,101.0,102.0,13.4,1505.2,330.8,-0.8,1.8,2471.457,13.29,0.029,215.3
2023-09-12T01:58:03,42.805,6.029,-0.029,0.03,-0.052,101.0,101.0,101.0,13.4,1505.2,345.6,-0.8,1.8,2471.468,13.29,0.041,316.0
2023-09-12T02:04:03,42.805,6.029,-0.002,-0.021,-0.057,101.0,101.0,101.0,13.3,1505.2,333.4,-0.8,1.8,2471.494,13.28,0.021,185.4
2023-09-12T02:07:03,42.805,6.029,-0.003,-0.002,0.007,102.0,100.0,101.0,13.4,1505.2,345.5,-0.8,1.8,2471.488,13.29,0.003,236.3
2023-09-12T02:10:03,42.805,6.029,-0.018,-0.003,-0.03,102.0,101.0,102.0,13.4,1505.2,330.6,-0.8,1.8,2471.458,13.29,0.018,260.5
2023-09-12T02:13:03,42.805,6.029,-0.017,0.006,-0.049,101.0,100.0,102.0,13.4,1505.2,344.6,-0.7,1.8,2471.459,13.29,0.018,289.4
2023-09-12T02:16:03,42.805,6.029,-0.003,-0.014,-0.036,102.0,103.0,101.0,13.3,1505.2,353.5,-0.8,1.8,2471.467,13.29,0.014,192.1
2023-09-12T02:19:03,42.805,6.029,-0.022,-0.012,-0.032,101.0,102.0,101.0,13.3,1505.2,328.3,-0.7,1.8,2471.49,13.29,0.025,241.4
2023-09-12T02:22:03,42.805,6.029,-0.029,0.009,-0.039,102.0,101.0,101.0,13.3,1505.2,346.5,-0.7,1.8,2471.436,13.29,0.03,287.2
2023-09-12T02:25:03,42.805,6.029,-0.019,0.041,-0.006,101.0,102.0,100.0,13.4,1505.2,350.5,-0.8,1.8,2471.466,13.29,0.045,335.1
2023-09-12T02:28:03,42.805,6.029,-0.012,0.016,-0.038,101.0,102.0,101.0,13.4,1505.2,346.2,-0.7,1.8,2471.431,13.29,0.02,323.1
2023-09-12T02:31:03,42.805,6.029,-0.022,0.02,-0.023,101.0,101.0,101.0,13.4,1505.2,351.0,-0.8,1.9,2471.514,13.29,0.029,312.3
2023-09-12T02:34:03,42.805,6.029,0.0,-0.005,-0.019,102.0,101.0,102.0,13.4,1505.2,341.5,-0.7,1.8,2471.45,13.29,0.005,180.0
2023-09-12T02:37:03,42.805,6.029,-0.015,0.008,-0.023,102.0,102.0,101.0,13.4,1505.2,342.9,-0.8,1.8,2471.474,13.29,0.017,298.1
2023-09-12T02:40:03,42.805,6.029,-0.027,0.001,-0.068,103.0,101.0,101.0,13.4,1505.2,332.4,-0.8,1.8,2471.447,13.29,0.027,272.1
2023-09-12T02:43:03,42.805,6.029,-0.01,0.004,-0.001,102.0,101.0,101.0,13.4,1505.2,334.2,-0.7,1.8,2471.483,13.29,0.01,291.8
2023-09-12T02:46:03,42.805,6.029,-0.014,0.006,-0.013,102.0,101.0,100.0,13.3,1505.2,325.8,-0.8,1.8,2471.472,13.29,0.015,293.2
2023-09-12T02:49:03,42.805,6.029,-0.01,-0.021,-0.047,102.0,102.0,101.0,13.3,1505.2,338.6,-0.8,1.8,2471.483,13.29,0.023,205.5
2023-09-12T02:52:03,42.805,6.029,-0.009,-0.023,-0.025,101.0,103.0,101.0,13.3,1505.2,335.3,-0.7,1.8,2471.501,13.29,0.024,201.4
2023-09-12T02:55:03,42.805,6.029,-0.007,-0.005,-0.045,102.0,102.0,101.0,13.4,1505.2,346.2,-0.8,1.8,2471.476,13.29,0.008,234.5
2023-09-12T02:58:03,42.805,6.029,-0.012,0.009,-0.05,102.0,101.0,101.0,13.3,1505.2,350.5,-0.8,1.8,2471.421,13.29,0.015,306.9
2023-09-12T03:04:03,42.805,6.029,-0.008,0.005,-0.033,101.0,101.0,101.0,13.4,1505.2,344.7,-0.7,1.8,2471.534,13.28,0.009,302.0
2023-09-12T03:07:03,42.805,6.029,-0.027,0.008,-0.041,102.0,101.0,101.0,13.4,1505.2,352.3,-0.8,1.8,2471.532,13.29,0.028,286.5
2023-09-12T03:10:03,42.805,6.029,-0.032,-0.003,-0.028,102.0,102.0,102.0,13.4,1505.2,334.9,-0.8,1.8,2471.54,13.29,0.032,264.6
2023-09-12T03:13:03,42.805,6.029,0.001,0.0,-0.019,103.0,102.0,101.0,13.4,1505.2,331.9,-0.8,1.8,2471.526,13.29,0.001,90.0
2023-09-12T03:16:03,42.805,6.029,-0.024,-0.029,-0.05,101.0,101.0,102.0,13.4,1505.2,344.0,-0.8,1.8,2471.501,13.29,0.037,219.6
2023-09-12T03:19:03,42.805,6.029,-0.023,0.015,-0.03,102.0,101.0,101.0,13.4,1505.2,334.3,-0.8,1.8,2471.505,13.29,0.027,303.1
2023-09-12T03:22:03,42.805,6.029,-0.008,0.011,-0.049,101.0,103.0,101.0,13.4,1505.2,352.1,-0.8,1.8,2471.514,13.29,0.013,324.0
2023-09-12T03:25:03,42.805,6.029,-0.013,-0.007,-0.057,102.0,101.0,101.0,13.4,1505.2,340.4,-0.7,1.8,2471.482,13.29,0.014,241.7
2023-09-12T03:28:03,42.805,6.029,-0.006,-0.011,-0.045,102.0,102.0,101.0,13.4,1505.2,350.7,-0.8,1.8,2471.503,13.29,0.012,208.6
2023-09-12T03:31:03,42.805,6.029,-0.021,-0.002,-0.061,102.0,103.0,101.0,13.4,1505.2,354.9,-0.8,1.8,2471.483,13.29,0.021,264.6
2023-09-12T03:34:03,42.805,6.029,-0.013,-0.014,-0.055,103.0,101.0,101.0,13.4,1505.2,327.5,-0.8,1.8,2471.491,13.29,0.019,222.9
2023-09-12T03:37:03,42.805,6.029,-0.027,-0.012,-0.062,102.0,101.0,101.0,13.3,1505.2,328.2,-0.7,1.8,2471.507,13.29,0.029,246.0
2023-09-12T03:40:03,42.805,6.029,-0.031,-0.001,-0.068,102.0,102.0,104.0,13.4,1505.2,327.8,-0.8,1.8,2471.474,13.29,0.031,268.2
2023-09-12T03:43:03,42.805,6.029,-0.009,-0.01,-0.028,102.0,102.0,101.0,13.4,1505.2,341.9,-0.8,1.8,2471.518,13.29,0.013,222.0
2023-09-12T03:46:03,42.805,6.029,-0.011,-0.004,-0.045,102.0,102.0,102.0,13.4,1505.2,339.4,-0.8,1.8,2471.52,13.29,0.011,250.0
2023-09-12T03:49:03,42.805,6.029,-0.001,-0.023,-0.01,102.0,102.0,101.0,13.4,1505.2,339.3,-0.7,1.8,2471.462,13.29,0.023,182.5
2023-09-12T03:52:03,42.805,6.029,-0.013,-0.013,-0.052,102.0,101.0,101.0,13.4,1505.2,343.0,-0.8,1.8,2471.477,13.29,0.018,225.0
2023-09-12T03:55:03,42.805,6.029,-0.022,0.014,-0.045,102.0,102.0,101.0,13.4,1505.2,343.7,-0.8,1.8,2471.482,13.29,0.026,302.5
2023-09-12T03:58:03,42.805,6.029,-0.013,0.022,-0.044,102.0,101.0,101.0,13.4,1505.2,340.5,-0.7,1.8,2471.512,13.29,0.025,329.4
2023-09-12T04:04:03,42.805,6.029,-0.012,-0.007,-0.024,102.0,101.0,101.0,13.4,1505.2,347.0,-0.8,1.8,2471.561,13.28,0.013,239.7
2023-09-12T04:07:03,42.805,6.029,-0.019,0.011,-0.05,102.0,101.0,101.0,13.3,1505.2,350.3,-0.8,1.8,2471.516,13.29,0.021,300.1
2023-09-12T04:10:03,42.805,6.029,-0.032,0.01,-0.053,102.0,102.0,101.0,13.4,1505.2,341.9,-0.8,1.8,2471.531,13.29,0.033,287.4
2023-09-12T04:13:03,42.805,6.029,-0.019,0.002,-0.056,103.0,102.0,101.0,13.3,1505.2,349.7,-0.8,1.8,2471.545,13.29,0.019,276.0
2023-09-12T04:16:03,42.805,6.029,-0.008,-0.01,-0.008,101.0,102.0,101.0,13.4,1505.2,324.2,-0.8,1.8,2471.537,13.29,0.012,218.7
2023-09-12T04:19:03,42.805,6.029,-0.02,-0.012,-0.041,103.0,103.0,100.0,13.3,1505.2,345.2,-0.7,1.8,2471.569,13.29,0.023,239.0
2023-09-12T04:22:03,42.805,6.029,-0.018,-0.017,-0.057,102.0,102.0,102.0,13.4,1505.2,352.7,-0.8,1.8,2471.55,13.29,0.024,226.6
2023-09-12T04:25:03,42.805,6.029,0.002,0.002,-0.018,101.0,103.0,102.0,13.3,1505.2,341.5,-0.8,1.9,2471.528,13.29,0.002,45.0
2023-09-12T04:28:03,42.805,6.029,-0.009,-0.014,-0.022,102.0,102.0,101.0,13.4,1505.2,337.3,-0.8,1.8,2471.493,13.29,0.016,212.7
2023-09-12T04:31:03,42.805,6.029,-0.013,-0.017,-0.052,102.0,102.0,102.0,13.3,1505.2,336.8,-0.8,1.8,2471.516,13.29,0.021,217.4
2023-09-12T04:34:03,42.805,6.029,-0.009,-0.016,-0.028,102.0,103.0,100.0,13.4,1505.2,346.2,-0.8,1.8,2471.503,13.29,0.018,209.4
2023-09-12T04:37:03,42.805,6.029,-0.005,-0.012,-0.053,101.0,102.0,101.0,13.4,1505.2,333.0,-0.7,1.8,2471.502,13.29,0.013,202.6
2023-09-12T04:40:03,42.805,6.029,-0.052,0.009,-0.046,103.0,102.0,102.0,13.3,1505.2,347.2,-0.8,1.8,2471.504,13.29,0.052,279.8
2023-09-12T04:43:03,42.805,6.029,-0.027,-0.004,-0.071,102.0,102.0,101.0,13.4,1505.2,353.6,-0.8,1.8,2471.516,13.29,0.027,261.6
2023-09-12T04:46:03,42.805,6.029,-0.014,-0.038,-0.054,102.0,102.0,101.0,13.4,1505.2,328.7,-0.8,1.8,2471.498,13.29,0.04,200.2
2023-09-12T04:49:03,42.805,6.029,-0.03,-0.007,-0.037,102.0,102.0,101.0,13.4,1505.2,343.9,-0.8,1.8,2471.505,13.29,0.03,256.9
2023-09-12T04:52:03,42.805,6.029,-0.01,-0.024,-0.054,103.0,102.0,101.0,13.4,1505.2,340.0,-0.8,1.8,2471.519,13.29,0.026,202.6
2023-09-12T04:55:03,42.805,6.029,-0.018,-0.009,-0.031,102.0,102.0,101.0,13.4,1505.2,335.3,-0.8,1.8,2471.522,13.29,0.02,243.4
2023-09-12T04:58:03,42.805,6.029,-0.013,-0.018,-0.049,102.0,102.0,101.0,13.3,1505.2,327.0,-0.8,1.8,2471.515,13.29,0.022,215.8
2023-09-12T05:04:03,42.805,6.029,-0.029,0.0,-0.032,102.0,102.0,101.0,13.4,1505.2,338.8,-0.8,1.8,2471.607,13.28,0.028,270.0
2023-09-12T05:07:03,42.805,6.029,-0.006,0.005,-0.045,102.0,103.0,102.0,13.4,1505.2,337.8,-0.7,1.8,2471.556,13.28,0.007,309.8
2023-09-12T05:10:03,42.805,6.029,-0.017,0.012,-0.047,102.0,102.0,101.0,13.3,1505.2,336.3,-0.8,1.8,2471.565,13.29,0.02,305.2
2023-09-12T05:13:03,42.805,6.029,-0.002,0.002,-0.013,103.0,103.0,102.0,13.3,1505.2,344.8,-0.8,1.8,2471.529,13.29,0.002,315.0
2023-09-12T05:16:03,42.805,6.029,-0.035,0.015,-0.044,103.0,101.0,101.0,13.4,1505.2,353.2,-0.8,1.8,2471.534,13.29,0.038,293.2
2023-09-12T05:19:03,42.805,6.029,-0.023,-0.017,-0.027,102.0,102.0,102.0,13.4,1505.2,324.5,-0.8,1.8,2471.537,13.29,0.028,233.5
2023-09-12T05:22:03,42.805,6.029,-0.022,0.004,-0.024,103.0,100.0,101.0,13.4,1505.2,347.5,-0.7,1.8,2471.546,13.29,0.022,280.3
2023-09-12T05:25:03,42.805,6.029,-0.036,-0.002,-0.029,102.0,102.0,101.0,13.4,1505.2,338.8,-0.8,1.8,2471.536,13.29,0.036,266.8
2023-09-12T05:28:03,42.805,6.029,-0.005,0.003,-0.016,102.0,102.0,102.0,13.4,1505.2,345.9,-0.8,1.8,2471.57,13.29,0.005,301.0
2023-09-12T05:31:03,42.805,6.029,-0.015,-0.008,-0.047,102.0,102.0,102.0,13.4,1505.2,352.0,-0.8,1.8,2471.545,13.29,0.017,241.9
2023-09-12T05:34:03,42.805,6.029,-0.02,-0.003,-0.025,102.0,103.0,101.0,13.4,1505.2,331.8,-0.8,1.8,2471.504,13.29,0.02,261.5
2023-09-12T05:37:03,42.805,6.029,-0.031,-0.006,-0.039,100.0,102.0,101.0,13.4,1505.2,342.6,-0.7,1.8,2471.569,13.29,0.031,259.0
2023-09-12T05:40:03,42.805,6.029,-0.045,0.014,-0.052,103.0,103.0,100.0,13.3,1505.2,337.1,-0.8,1.8,2471.54,13.29,0.047,287.3
2023-09-12T05:43:03,42.805,6.029,-0.029,-0.022,-0.033,102.0,101.0,102.0,13.3,1505.2,337.0,-0.7,1.8,2471.52,13.29,0.036,232.8
2023-09-12T05:46:03,42.805,6.029,-0.005,0.004,-0.016,102.0,102.0,101.0,13.3,1505.2,325.7,-0.8,1.8,2471.54,13.29,0.006,308.7
2023-09-12T05:49:03,42.805,6.029,-0.023,-0.004,-0.05,103.0,102.0,101.0,13.3,1505.2,335.0,-0.7,1.8,2471.508,13.29,0.023,260.1
2023-09-12T05:52:03,42.805,6.029,-0.019,-0.021,-0.002,103.0,101.0,102.0,13.4,1505.2,335.9,-0.8,1.8,2471.53,13.29,0.028,222.1
2023-09-12T05:55:03,42.805,6.029,-0.004,-0.015,-0.026,104.0,101.0,101.0,13.3,1505.2,352.3,-0.8,1.8,2471.547,13.29,0.015,194.9
2023-09-12T05:58:03,42.805,6.029,-0.013,-0.004,-0.032,104.0,101.0,102.0,13.4,1505.2,327.5,-0.8,1.8,2471.532,13.29,0.013,252.9
2023-09-12T06:04:03,42.805,6.029,-0.015,0.001,-0.008,102.0,102.0,101.0,13.4,1505.2,334.8,-0.7,1.8,2471.556,13.28,0.015,273.8
2023-09-12T06:07:03,42.805,6.029,-0.018,-0.001,-0.061,101.0,102.0,101.0,13.4,1505.2,335.7,-0.8,1.9,2471.588,13.29,0.018,266.8
2023-09-12T06:10:03,42.805,6.029,-0.02,0.007,-0.008,103.0,101.0,102.0,13.3,1505.2,327.9,-0.8,1.8,2471.593,13.29,0.021,289.3
2023-09-12T06:13:03,42.805,6.029,-0.011,-0.011,-0.05,103.0,102.0,101.0,13.3,1505.2,335.2,-0.8,1.8,2471.592,13.29,0.015,225.0
2023-09-12T06:16:03,42.805,6.029,-0.022,-0.013,-0.068,103.0,102.0,101.0,13.4,1505.2,335.7,-0.8,1.8,2471.568,13.29,0.025,239.4
2023-09-12T06:19:03,42.805,6.029,-0.017,-0.009,-0.04,103.0,102.0,100.0,13.4,1505.2,324.7,-0.8,1.8,2471.566,13.29,0.019,242.1
2023-09-12T06:22:03,42.805,6.029,-0.013,-0.008,-0.054,104.0,101.0,102.0,13.4,1505.2,342.2,-0.8,1.8,2471.532,13.29,0.015,238.4
2023-09-12T06:25:03,42.805,6.029,-0.014,-0.011,-0.003,102.0,102.0,101.0,13.4,1505.2,332.5,-0.8,1.8,2471.573,13.29,0.017,231.8
2023-09-12T06:28:03,42.805,6.029,-0.025,-0.018,-0.041,102.0,102.0,102.0,13.4,1505.2,332.1,-0.8,1.8,2471.544,13.29,0.03,234.2
2023-09-12T06:31:03,42.805,6.029,-0.019,0.002,-0.001,104.0,102.0,102.0,13.4,1505.2,354.5,-0.8,1.8,2471.528,13.29,0.019,276.0
2023-09-12T06:34:03,42.805,6.029,-0.02,-0.007,-0.049,103.0,103.0,102.0,13.4,1505.2,324.2,-0.8,1.8,2471.552,13.29,0.021,250.7
2023-09-12T06:37:03,42.805,6.029,-0.02,-0.016,-0.05,103.0,101.0,101.0,13.4,1505.2,344.0,-0.8,1.8,2471.537,13.29,0.025,231.3
2023-09-12T06:40:03,42.805,6.029,-0.007,-0.026,-0.039,103.0,103.0,102.0,13.3,1505.2,335.1,-0.7,1.8,2471.527,13.29,0.026,195.1
2023-09-12T06:43:03,42.805,6.029,-0.025,-0.01,-0.014,102.0,102.0,101.0,13.4,1505.2,335.1,-0.8,1.8,2471.529,13.29,0.026,248.2
2023-09-12T06:46:03,42.805,6.029,-0.013,-0.009,-0.029,103.0,102.0,101.0,13.4,1505.2,344.4,-0.8,1.8,2471.504,13.29,0.015,235.3
2023-09-12T06:49:03,42.805,6.029,-0.029,0.008,-0.038,103.0,101.0,101.0,13.4,1505.2,354.4,-0.8,1.8,2471.528,13.29,0.03,285.4
2023-09-12T06:52:03,42.805,6.029,-0.022,0.018,-0.01,102.0,102.0,101.0,13.4,1505.2,323.6,-0.8,1.8,2471.541,13.29,0.028,309.3
2023-09-12T06:55:03,42.805,6.029,-0.034,0.01,-0.034,103.0,102.0,102.0,13.3,1505.2,342.5,-0.8,1.8,2471.526,13.29,0.035,286.4
2023-09-12T06:58:03,42.805,6.029,-0.035,-0.004,-0.067,103.0,102.0,101.0,13.4,1505.2,344.9,-0.8,1.8,2471.52,13.29,0.035,263.5
2023-09-12T07:04:03,42.805,6.029,-0.022,-0.008,-0.016,102.0,102.0,101.0,13.3,1505.2,328.2,-0.8,1.8,2471.592,13.28,0.023,250.0
2023-09-12T07:07:03,42.805,6.029,-0.02,-0.009,-0.05,102.0,102.0,101.0,13.4,1505.2,336.8,-0.8,1.8,2471.566,13.29,0.021,245.8
2023-09-12T07:10:03,42.805,6.029,-0.019,0.02,-0.036,102.0,103.0,103.0,13.4,1505.2,350.9,-0.8,1.8,2471.571,13.29,0.027,316.5
2023-09-12T07:13:03,42.805,6.029,-0.033,0.019,-0.014,103.0,102.0,101.0,13.4,1505.2,352.3,-0.8,1.8,2471.52,13.29,0.038,299.9
2023-09-12T07:16:03,42.805,6.029,0.007,-0.006,-0.027,102.0,103.0,102.0,13.4,1505.2,342.3,-0.8,1.8,2471.551,13.29,0.009,130.6
2023-09-12T07:19:03,42.805,6.029,-0.01,0.014,0.008,103.0,103.0,102.0,13.4,1505.2,343.7,-0.8,1.8,2471.529,13.29,0.017,324.5
2023-09-12T07:22:03,42.805,6.029,-0.039,0.002,-0.024,105.0,102.0,101.0,13.4,1505.2,328.2,-0.8,1.8,2471.52,13.29,0.039,272.9
2023-09-12T07:31:03,42.805,6.029,-0.032,-0.01,-0.064,102.0,102.0,102.0,13.4,1505.2,355.6,-0.8,1.8,2471.564,13.28,0.033,252.6
2023-09-12T07:34:03,42.805,6.029,-0.019,-0.008,-0.024,102.0,102.0,102.0,13.4,1505.2,325.0,-0.7,1.8,2471.527,13.29,0.02,247.2
2023-09-12T07:37:03,42.805,6.029,-0.026,0.0,-0.019,103.0,103.0,102.0,13.3,1505.2,342.6,-0.8,1.8,2471.539,13.29,0.026,270.0
2023-09-12T07:40:03,42.805,6.029,-0.002,0.001,-0.032,103.0,103.0,101.0,13.4,1505.2,346.2,-0.8,1.8,2471.579,13.29,0.002,296.6
2023-09-12T07:43:03,42.805,6.029,-0.028,0.005,-0.014,103.0,102.0,101.0,13.3,1505.2,338.0,-0.7,1.8,2471.532,13.29,0.028,280.1
2023-09-12T07:46:03,42.805,6.029,-0.028,-0.012,-0.043,103.0,102.0,102.0,13.4,1505.2,328.2,-0.7,1.8,2471.553,13.29,0.03,246.8
2023-09-12T07:49:03,42.805,6.029,-0.006,-0.008,-0.034,102.0,102.0,102.0,13.4,1505.2,341.9,-0.8,1.8,2471.556,13.29,0.01,216.9
2023-09-12T07:52:03,42.805,6.029,-0.027,-0.001,-0.046,103.0,102.0,101.0,13.4,1505.2,338.2,-0.7,1.8,2471.509,13.29,0.027,267.9
2023-09-12T07:55:03,42.805,6.029,-0.037,-0.002,-0.032,102.0,102.0,102.0,13.4,1505.2,351.8,-0.8,1.8,2471.511,13.29,0.037,266.9
2023-09-12T07:58:03,42.805,6.029,-0.022,0.011,0.002,102.0,101.0,103.0,13.4,1505.2,354.5,-0.8,1.8,2471.514,13.29,0.024,296.6
2023-09-12T08:04:03,42.805,6.029,-0.018,0.022,-0.021,103.0,102.0,101.0,13.4,1505.2,334.6,-0.8,1.8,2471.551,13.28,0.028,320.7
2023-09-12T08:07:03,42.805,6.029,-0.013,0.014,-0.002,103.0,103.0,101.0,13.4,1505.2,342.8,-0.8,1.8,2471.549,13.29,0.019,317.1
2023-09-12T08:10:03,42.805,6.029,-0.025,0.039,-0.027,104.0,102.0,101.0,13.3,1505.2,350.5,-0.7,1.8,2471.531,13.29,0.046,327.3
2023-09-12T08:13:03,42.805,6.029,-0.028,-0.007,-0.043,103.0,102.0,101.0,13.3,1505.2,336.6,-0.8,1.8,2471.519,13.29,0.028,256.0
2023-09-12T08:16:03,42.805,6.029,-0.04,0.007,-0.023,104.0,102.0,101.0,13.3,1505.2,329.4,-0.8,1.8,2471.532,13.29,0.04,279.9
2023-09-12T08:19:03,42.805,6.029,-0.028,0.001,-0.03,103.0,103.0,102.0,13.3,1505.2,338.3,-0.8,1.8,2471.497,13.29,0.028,272.0
2023-09-12T08:22:03,42.805,6.029,0.002,-0.003,-0.045,103.0,103.0,102.0,13.3,1505.2,332.9,-0.8,1.8,2471.501,13.29,0.003,146.3
2023-09-12T08:25:03,42.805,6.029,-0.049,0.0,-0.043,103.0,102.0,101.0,13.3,1505.2,350.7,-0.8,1.8,2471.544,13.29,0.049,270.0
2023-09-12T08:28:03,42.805,6.029,-0.023,-0.016,-0.054,103.0,102.0,101.0,13.3,1505.2,346.9,-0.7,1.8,2471.477,13.29,0.028,235.2
2023-09-12T08:31:03,42.805,6.029,-0.037,0.0,-0.037,105.0,102.0,101.0,13.3,1505.2,348.3,-0.7,1.8,2471.492,13.29,0.037,270.0
2023-09-12T08:34:03,42.805,6.029,-0.035,-0.005,-0.059,104.0,103.0,101.0,13.4,1505.2,345.2,-0.8,1.8,2471.505,13.29,0.035,261.9
2023-09-12T08:37:03,42.805,6.029,-0.026,0.007,-0.014,103.0,103.0,102.0,13.3,1505.2,338.7,-0.8,1.8,2471.494,13.29,0.026,285.1
2023-09-12T08:40:03,42.805,6.029,-0.024,0.015,-0.025,103.0,102.0,102.0,13.4,1505.2,344.0,-0.8,1.8,2471.505,13.29,0.028,302.0
2023-09-12T08:43:03,42.805,6.029,-0.035,0.003,-0.027,103.0,102.0,101.0,13.3,1505.2,332.4,-0.8,1.8,2471.504,13.29,0.035,274.9
2023-09-12T08:46:03,42.805,6.029,-0.03,0.014,-0.026,104.0,103.0,101.0,13.3,1505.2,350.2,-0.8,1.9,2471.48,13.29,0.033,295.0
2023-09-12T08:49:03,42.805,6.029,-0.023,-0.023,-0.05,103.0,102.0,101.0,13.3,1505.2,329.9,-0.7,1.8,2471.507,13.29,0.032,225.0
2023-09-12T08:52:03,42.805,6.029,-0.03,0.013,-0.029,102.0,102.0,102.0,13.4,1505.2,342.8,-0.7,1.8,2471.493,13.29,0.032,293.4
2023-09-12T08:55:03,42.805,6.029,-0.023,0.005,-0.031,104.0,103.0,100.0,13.4,1505.2,354.9,-0.7,1.8,2471.521,13.29,0.023,282.3
2023-09-12T08:58:03,42.805,6.029,-0.005,-0.012,-0.026,103.0,102.0,102.0,13.3,1505.2,324.7,-0.7,1.8,2471.48,13.29,0.013,202.6
2023-09-12T09:04:03,42.805,6.029,-0.023,-0.01,-0.026,103.0,102.0,102.0,13.4,1505.2,344.6,-0.8,1.8,2471.506,13.28,0.025,246.5
2023-09-12T09:07:03,42.805,6.029,-0.027,-0.014,-0.036,102.0,101.0,102.0,13.4,1505.2,337.3,-0.8,1.8,2471.519,13.29,0.03,242.6
2023-09-12T09:10:03,42.805,6.029,0.012,0.003,-0.01,102.0,102.0,101.0,13.3,1505.2,355.7,-0.7,1.8,2471.509,13.29,0.012,76.0
2023-09-12T09:13:03,42.805,6.029,-0.03,0.012,-0.014,102.0,103.0,102.0,13.3,1505.2,328.4,-0.7,1.8,2471.487,13.29,0.032,291.8
2023-09-12T09:16:03,42.805,6.029,-0.005,-0.013,-0.052,104.0,102.0,101.0,13.4,1505.2,338.4,-0.8,1.8,2471.481,13.29,0.013,201.0
2023-09-12T09:19:03,42.805,6.029,-0.032,-0.023,-0.035,102.0,102.0,102.0,13.4,1505.2,323.4,-0.8,1.8,2471.48,13.29,0.039,234.3
2023-09-12T09:22:03,42.805,6.029,-0.012,0.014,-0.011,103.0,102.0,102.0,13.4,1505.2,342.3,-0.8,1.8,2471.493,13.29,0.018,319.4
2023-09-12T09:25:03,42.805,6.029,-0.01,0.015,-0.043,103.0,102.0,102.0,13.3,1505.2,337.3,-0.8,1.8,2471.483,13.29,0.018,326.3
2023-09-12T09:28:03,42.805,6.029,-0.002,-0.006,-0.016,104.0,102.0,102.0,13.3,1505.2,333.8,-0.8,1.8,2471.467,13.29,0.006,198.4
2023-09-12T09:31:03,42.805,6.029,-0.023,0.008,-0.037,103.0,102.0,101.0,13.4,1505.2,335.9,-0.8,1.8,2471.494,13.29,0.024,289.2
2023-09-12T09:34:03,42.805,6.029,-0.033,-0.007,-0.036,103.0,102.0,102.0,13.3,1505.2,351.8,-0.8,1.8,2471.469,13.29,0.033,258.0
2023-09-12T09:37:03,42.805,6.029,-0.016,0.03,-0.001,104.0,103.0,101.0,13.4,1505.2,327.3,-0.8,1.8,2471.528,13.29,0.034,331.9
2023-09-12T09:40:03,42.805,6.029,-0.034,-0.009,-0.04,104.0,103.0,102.0,13.3,1505.2,339.4,-0.8,1.8,2471.451,13.29,0.035,255.2
2023-09-12T09:43:03,42.805,6.029,-0.008,-0.016,-0.037,103.0,102.0,101.0,13.4,1505.2,336.9,-0.8,1.8,2471.467,13.29,0.017,206.6
2023-09-12T09:46:03,42.805,6.029,-0.031,0.006,-0.019,103.0,102.0,102.0,13.4,1505.2,345.1,-0.8,1.8,2471.483,13.29,0.031,281.0
2023-09-12T09:49:03,42.805,6.029,-0.018,0.011,-0.038,103.0,102.0,102.0,13.4,1505.2,356.7,-0.8,1.8,2471.459,13.29,0.021,301.4
2023-09-12T09:52:03,42.805,6.029,-0.025,0.002,-0.029,103.0,102.0,102.0,13.3,1505.2,339.0,-0.8,1.8,2471.459,13.29,0.025,274.6
2023-09-12T09:55:03,42.805,6.029,-0.001,-0.006,-0.037,102.0,103.0,102.0,13.4,1505.2,354.4,-0.8,1.8,2471.452,13.29,0.006,189.5
2023-09-12T09:58:03,42.805,6.029,-0.04,-0.017,-0.05,103.0,103.0,101.0,13.4,1505.2,328.2,-0.7,1.8,2471.448,13.29,0.043,247.0